CZ-6A DEB, 60859

Orbit data source: Space-Track

CZ-6A DEB, 60859 is space debris in LEO originally from a launch on Tue, 06 Aug 2024 UTC launched from the Taiyaun Space Center, China (TSC). Debris objects in space refer to the collection of defunct objects orbiting the Earth. Examples of debris include non-operational satellites, rocket bodies, and fragments generated from explosions, collisions, or faulty payload assembly.

Loading next visibility...
Identifier
60859, 2024-140JN
Orbit
LEO
Country
Flag of CNCN / PRC
Related business
Manufacturer
SAST
Mission
Spacecraft
Bus & Motor
Unknown
Mass
Unknown
Launch date (UTC)
2024-08-06 (2 years ago)
Launch vehicle
Unknown
Launch site
Taiyaun Space Center, China (TSC)
Object type
Payload
Rocket body
Debris
Shape & HBR
Unknown shape, 0.1 m
Radar Cross Section
Medium (>0.1 m² and <1 m²)

Expand to show TLE details & history
Last TLE update: 10 hours ago

TLE from 10 hours ago
0 CZ-6A DEB
1 60859U 24140JN  26171.44122416  .00001402  00000-0  41839-3 0  9995
2 60859  88.5659 235.8660 0062846 340.8077  19.0757 14.41373601 96965
Epoch: 2026-06-20T10:35Z
TLE epoch observation values (Epoch: 2026-06-20T10:35:21.767Z)
Latitude
-0.00003°
Longitude
168.3695°
Altitude
714.706 km
Speed
7.52 km/s
True Right ascension
15h 43m 27s
True Declination
0° 00' 00"
Sunlit
Object was in full shadow at epoch
Visualization orbit readout
Latitude
Unknown
Longitude
Unknown
Altitude
Unknown
Speed
Unknown
Apparent Right ascension
Unknown
Apparent Declination
Unknown
Sunlit
N/A
Visualization observer readout
Local Sidereal Time
07:23:00
Azimuth
Unknown
Elevation
Unknown
Doppler factor
Unknown
Orbital elements
Apogee altitude
795.69 km
Perigee altitude
706.084 km
Semi-major axis
7,129.024 km
Eccentricity
0.00628
Inclination
88.5659°
RAAN
235.866°
Arg. of periapsis
340.8077°
True anomaly
19.31282°
Mean anomaly
19.0757°
Eccentric anomaly
19.19408°
Mean motion
3.60577 °/min
Orbital period
99.84 mins
BSTAR
0.00041839
Loading maneuver chart data...
Computing Atmospheric mass density...
Loading historical data...
Loading historical data...
Loading historical data...
Loading historical data...
Loading historical data...
Loading historical data...
Loading historical data...

Documentation

Showing up to 5 results
|